IV3CVE-H1 Weather Reports


time (UTC)temp
F
wind
direction
speed
knots
gust
knots
rain 1hr
in
rain 24hr
in
rain mn
in
humidity
%
barometer
mb
20260507134515 74 130 5.2 11.3 0.00 0.16 0.00 55 1009.9
20260507133558 74 133 3.5 11.3 0.00 0.16 0.00 55 1009.8
20260507132519 74 132 5.2 10.4 0.00 0.16 0.00 57 1009.9
20260507131517 74 140 4.3 12.2 0.00 0.16 0.00 58 1010.0
20260507130516 74 168 5.2 10.4 0.00 0.16 0.00 59 1010.1
20260507125516 74 155 5.2 11.3 0.00 0.16 0.00 57 1010.0
20260507124516 75 168 5.2 10.4 0.00 0.16 0.00 56 1010.0
20260507123515 74 143 4.3 9.6 0.00 0.17 0.00 52 1010.1
20260507122517 74 117 5.2 8.7 0.00 0.17 0.00 53 1010.1
20260507121517 73 184 5.2 8.7 0.00 0.17 0.00 57 1010.2
20260507120516 73 170 4.3 10.4 0.00 0.17 0.00 58 1010.2
20260507115516 71 143 1.7 11.3 0.00 0.17 0.00 58 1010.2
20260507114536 71 147 3.5 8.7 0.00 0.17 0.00 59 1010.3
20260507113515 72 95 3.5 7.0 0.00 0.17 0.00 62 1010.3
20260507112516 74 109 4.3 9.6 0.00 0.17 0.00 59 1010.4
20260507111535 73 105 2.6 7.0 0.00 0.17 0.00 61 1010.4
20260507110538 73 82 4.3 8.7 0.00 0.17 0.00 60 1010.5
20260507105517 73 117 3.5 7.8 0.00 0.17 0.00 59 1010.6
20260507104517 72 152 3.5 6.1 0.00 0.17 0.00 60 1010.6
20260507103517 72 54 2.6 7.0 0.00 0.18 0.00 67 1010.8
20260507102516 72 95 1.7 6.1 0.00 0.19 0.00 63 1010.9
20260507101517 72 149 2.6 7.0 0.00 0.19 0.00 66 1010.9
20260507100516 71 96 2.6 5.2 0.00 0.19 0.00 72 1011.0
20260507095516 70 86 1.7 5.2 0.00 0.20 0.00 70 1010.9
20260507094515 70 72 0.9 3.5 0.00 0.20 0.00 71 1010.9
20260507093515 70 85 1.7 5.2 0.00 0.20 0.00 71 1010.8
20260507092515 70 109 3.5 7.8 0.00 0.21 0.00 74 1010.8
20260507091517 70 104 1.7 5.2 0.00 0.21 0.00 70 1010.8
20260507090520 70 123 1.7 6.1 0.00 0.21 0.00 73 1010.8
20260507085517 69 23 1.7 5.2 0.00 0.21 0.00 72 1010.8
20260507084516 69 83 0.9 7.0 0.00 0.21 0.00 73 1010.8
20260507083536 69 74 1.7 5.2 0.00 0.21 0.00 74 1010.8
20260507082517 68 91 2.6 5.2 0.00 0.21 0.00 76 1010.7
20260507081517 67 76 0.0 4.3 0.00 0.22 0.00 75 1010.6
20260507080516 67 83 3.5 7.0 0.00 0.22 0.00 79 1010.6
20260507075516 66 92 1.7 4.3 0.00 0.22 0.00 79 1010.6
20260507074516 65 104 0.9 6.1 0.00 0.22 0.00 81 1010.5
20260507073516 65 62 2.6 5.2 0.00 0.23 0.00 82 1010.5
20260507072519 64 76 2.6 7.8 0.00 0.24 0.00 84 1010.5
20260507071516 64 47 2.6 7.0 0.00 0.24 0.00 86 1010.4
20260507070515 63 52 3.5 5.2 0.00 0.24 0.00 87 1010.4
20260507065515 63 25 1.7 6.1 0.00 0.24 0.00 89 1010.3
20260507064517 62 18 3.5 5.2 0.00 0.24 0.00 90 1010.3
20260507063517 61 30 3.5 6.1 0.00 0.24 0.00 88 1010.2
20260507062517 61 28 2.6 7.0 0.00 0.24 0.00 88 1010.1
20260507061517 61 28 2.6 7.0 0.00 0.24 0.00 88 1010.1
20260507060516 61 29 4.3 7.0 0.00 0.25 0.00 86 1010.0
20260507055517 60 33 4.3 7.8 0.00 0.25 0.00 85 1010.0
20260507054516 60 35 4.3 7.0 0.00 0.25 0.00 85 1009.8
20260507053516 60 55 3.5 7.0 0.00 0.27 0.00 85 1009.6
20260507052516 59 53 2.6 6.1 0.00 0.27 0.00 85 1009.5
20260507051535 59 33 0.9 3.5 0.00 0.27 0.00 85 1009.5
20260507050517 58 32 0.9 4.3 0.00 0.27 0.00 86 1009.4
20260507045517 58 58 2.6 4.3 0.00 0.27 0.00 85 1009.2
20260507044517 59 43 0.9 3.5 0.00 0.27 0.00 85 1009.1
20260507043516 59 45 0.0 1.7 0.00 0.27 0.00 85 1009.1
20260507042517 59 45 0.9 2.6 0.00 0.27 0.00 86 1009.0
20260507041515 59 43 2.6 3.5 0.00 0.27 0.01 85 1008.9
20260507040517 59 27 1.7 2.6 0.00 0.27 0.01 85 1008.8
20260507035517 59 22 0.9 3.5 0.01 0.27 0.01 85 1008.8
20260507034517 59 20 0.9 3.5 0.01 0.27 0.01 85 1008.8
20260507033517 59 20 0.9 2.6 0.01 0.27 0.01 85 1008.9
20260507032517 59 20 0.9 2.6 0.01 0.27 0.01 85 1008.8
20260507031516 59 20 0.0 1.7 0.01 0.27 0.01 85 1008.8
20260507030516 59 20 0.9 2.6 0.01 0.27 0.01 85 1008.9
20260507025515 59 20 0.9 2.6 0.00 0.26 0.00 85 1008.9
20260507024516 59 20 0.9 3.5 0.00 0.26 0.00 85 1008.8
20260507023515 59 20 0.9 1.7 0.00 0.26 0.00 85 1008.8
20260507022515 59 20 0.9 2.6 0.00 0.26 0.00 86 1008.8
20260507021517 59 20 1.7 2.6 0.00 0.26 0.00 86 1008.7
20260507020517 58 20 1.7 3.5 0.00 0.26 0.00 86 1008.7
20260507015516 58 20 0.9 2.6 0.00 0.26 0.00 86 1008.7
20260507014537 58 44 0.9 2.6 0.00 0.26 0.00 86 1008.7
20260507013516 59 45 1.7 3.5 0.00 0.26 0.00 86 1008.7
20260507012515 59 39 2.6 4.3 0.00 0.26 0.00 86 1008.7
20260507011516 58 35 2.6 4.3 0.00 0.26 0.00 86 1008.8
20260507010515 58 36 0.9 2.6 0.00 0.26 0.00 86 1008.9
20260507005556 58 36 1.7 3.5 0.00 0.26 0.00 87 1008.8
20260507004517 58 74 0.9 2.6 0.00 0.26 0.00 87 1008.8
20260507003518 58 73 0.0 1.7 0.00 0.26 0.00 87 1008.8
20260507002517 58 73 0.9 2.6 0.00 0.26 0.00 87 1008.8
20260507001515 59 73 0.0 0.9 0.00 0.26 0.00 87 1008.9
20260507000516 59 73 0.9 1.7 0.00 0.26 0.00 87 1008.9
20260506235515 59 74 0.9 3.5 0.00 0.26 0.00 87 1008.9
20260506234517 59 70 2.6 4.3 0.00 0.26 0.00 87 1008.8
20260506233518 59 71 2.6 4.3 0.00 0.26 0.00 87 1008.9
20260506232517 60 74 1.7 4.3 0.00 0.26 0.00 87 1008.9
20260506231516 60 59 2.6 3.5 0.00 0.26 0.00 87 1009.0
20260506230516 60 50 1.7 3.5 0.00 0.26 0.00 88 1009.0
20260506225536 60 57 1.7 4.3 0.00 0.26 0.00 88 1009.1
20260506224516 59 70 2.6 5.2 0.00 0.26 0.00 87 1009.1
20260506223515 59 73 1.7 6.1 0.00 0.26 0.00 87 1009.1
20260506222515 59 75 1.7 6.1 0.00 0.26 0.00 87 1009.1
20260506221515 59 74 2.6 5.2 0.00 0.26 0.00 87 1009.0
20260506220517 59 73 0.9 4.3 0.00 0.27 0.00 87 1009.0
20260506215517 59 73 1.7 4.3 0.00 0.28 0.00 87 1009.0
20260506214517 59 68 2.6 4.3 0.00 0.28 0.00 87 1009.0
20260506213517 59 124 1.7 2.6 0.00 0.28 0.00 87 1009.1
20260506212517 59 124 0.9 2.6 0.00 0.28 0.00 87 1009.1
20260506211516 59 126 1.7 2.6 0.00 0.28 0.00 86 1009.1
20260506210516 59 124 0.0 0.9 0.00 0.28 0.00 87 1009.2
20260506205516 59 126 0.9 4.3 0.00 0.28 0.00 86 1009.2
20260506204535 59 102 1.7 4.3 0.00 0.28 0.00 87 1009.1
20260506203515 59 112 1.7 3.5 0.00 0.28 0.00 87 1009.0
20260506202515 60 123 1.7 3.5 0.00 0.28 0.00 87 1009.0
20260506201517 60 124 0.9 2.6 0.00 0.28 0.00 87 1008.9
20260506200516 60 138 1.7 2.6 0.00 0.29 0.00 88 1008.9
20260506195515 60 138 1.7 2.6 0.00 0.29 0.00 87 1008.8
20260506194535 61 138 0.9 2.6 0.00 0.30 0.00 87 1008.6
20260506193515 61 145 0.9 2.6 0.00 0.30 0.00 87 1008.5
20260506192518 61 154 1.7 3.5 0.00 0.30 0.00 87 1008.5
20260506191517 61 146 1.7 4.3 0.00 0.30 0.00 87 1008.4
20260506190517 61 152 1.7 4.3 0.00 0.30 0.00 87 1008.2
20260506185516 62 134 2.6 7.0 0.00 0.30 0.00 87 1008.0
20260506184516 62 128 2.6 6.1 0.00 0.30 0.00 87 1008.0
20260506183516 62 126 1.7 5.2 0.00 0.30 0.00 87 1008.1
20260506182536 62 125 2.6 5.2 0.00 0.30 0.00 87 1008.1
20260506181515 62 132 1.7 3.5 0.00 0.30 0.00 87 1008.0
20260506180515 62 135 0.9 3.5 0.00 0.30 0.00 87 1008.0
20260506175515 62 145 1.7 4.3 0.00 0.30 0.00 87 1008.0
20260506174538 62 137 1.7 4.3 0.00 0.30 0.00 87 1008.0
20260506173517 62 154 1.7 4.3 0.00 0.31 0.00 87 1007.9
20260506172517 62 158 0.9 4.3 0.00 0.31 0.00 87 1007.9
20260506171516 62 154 1.7 4.3 0.00 0.31 0.00 87 1007.8
20260506170516 62 151 0.9 2.6 0.00 0.31 0.00 88 1007.7
20260506165516 61 152 1.7 3.5 0.01 0.31 0.00 88 1007.7
20260506164516 61 178 0.9 3.5 0.03 0.31 0.00 88 1007.8
20260506163515 61 141 1.7 4.3 0.04 0.31 0.00 88 1007.8
20260506162515 61 147 2.6 5.2 0.07 0.31 0.00 88 1007.8
20260506161515 61 156 1.7 7.0 0.10 0.31 0.00 88 1007.7
20260506160536 61 158 3.5 7.8 0.13 0.31 0.17 88 1007.7
20260506155516 62 162 4.3 10.4 0.13 0.31 0.16 89 1007.7
20260506154515 62 154 5.2 14.8 0.12 0.29 0.13 89 1007.7
20260506153515 62 159 2.6 12.2 0.11 0.29 0.13 90 1007.7
20260506152515 63 132 3.5 8.7 0.08 0.27 0.09 89 1007.8
20260506151537 63 131 2.6 6.1 0.05 0.24 0.06 89 1007.8
20260506150517 63 132 2.6 10.4 0.02 0.21 0.04 90 1007.8
20260506145517 63 133 2.6 7.0 0.01 0.20 0.02 90 1007.8
20260506144517 64 127 2.6 7.8 0.00 0.20 0.02 89 1007.8
20260506143517 64 125 5.2 9.6 0.00 0.21 0.02 89 1007.9
20260506142516 64 120 4.3 9.6 0.00 0.23 0.02 89 1008.0
20260506141516 64 121 5.2 8.7 0.00 0.24 0.02 89 1008.1
20260506140515 65 107 4.3 8.7 0.00 0.25 0.02 89 1008.1
20260506135536 64 124 4.3 7.8 0.00 0.26 0.02 89 1008.2